Weather History for KTOI - March, 2013

Change the Weather History Date:

Saturday, March 30, 2013

  Actual Average Record
Temperature  
Mean Temperature 62 °F 59 °F  
Max Temperature 77 °F 73 °F 82 °F (1998)
Min Temperature 47 °F 46 °F 37 °F (2003)
Degree Days  
Heating Degree Days 3 6  
Month to date heating degree days 429 276  
Since 1 July heating degree days 2035 2195  
Cooling Degree Days 0 1  
Month to date cooling degree days 3 10  
Year to date cooling degree days 23 15  
Growing Degree Days 10 (Base 50)    
Moisture  
Dew Point 48 °F    
Average Humidity 62    
Maximum Humidity 86    
Minimum Humidity 38    
Precipitation  
Precipitation 0.00 in 0.21 in 1.61 in (2011)
Month to date precipitation 3.03 5.82  
Year to date precipitation 18.32 14.95  
Snow  
Snow 0.00 in - - ()
Month to date snowfall 0.0  
Since 1 July snowfall 0.0  
Snow Depth 0.00 in    
Sea Level Pressure  
Sea Level Pressure 30.13 in    
Wind  
Wind Speed 6 mph (SSW)    
Max Wind Speed 17 mph    
Max Gust Speed 25 mph    
Visibility 10 miles    
Events      
T = Trace of Precipitation, MM = Missing Value Source: NWS Daily Summary

Daily Weather History Graph

Daily Weather History Graph

Search for Another Location

Airport or City:

Trip Planner

Search our weather history database for the weather conditions in past years. The results will help you decide how hot, cold, wet, or windy it might be!

Date:

Astronomy

Mar. 30, 2013 Rise Set
Actual Time 6:34 AM CDT 7:02 PM CDT
Civil Twilight 6:10 AM CDT 7:27 PM CDT
Nautical Twilight 5:41 AM CDT 7:55 PM CDT
Astronomical Twilight 5:12 AM CDT 8:25 PM CDT
Moon 10:53 PM CDT 8:42 AM CDT
Length of Visible Light 13h 16m
Length of Day
12h 27m
Waning Gibbous, 86% of the Moon is Illuminated
Mar 30
Waning Gibbous
Apr 2
Last Quarter
Apr 10
New
Apr 18
First Quarter
Apr 25
Full

Hourly Weather History & Observations

Time (CDT) Temp. Dew Point Humidity Pressure Visibility Wind Dir Wind Speed Gust Speed Precip Events Conditions
12:53 AM 55.0 °F 39.9 °F 57% 30.21 in 10.0 mi SSW 3.5 mph - N/A   Mostly Cloudy
1:53 AM 53.1 °F 42.1 °F 66% 30.20 in 10.0 mi Calm Calm - N/A   Partly Cloudy
2:53 AM 50.0 °F 42.1 °F 74% 30.19 in 10.0 mi Calm Calm - N/A   Clear
3:53 AM 48.9 °F 42.1 °F 77% 30.17 in 10.0 mi Calm Calm - N/A   Mostly Cloudy
4:53 AM 48.9 °F 44.1 °F 83% 30.18 in 10.0 mi Calm Calm - N/A   Mostly Cloudy
5:53 AM 48.0 °F 45.0 °F 89% 30.18 in 9.0 mi Calm Calm - N/A   Overcast
6:53 AM 50.0 °F 46.0 °F 86% 30.20 in 7.0 mi Calm Calm - N/A   Overcast
7:53 AM 53.1 °F 48.0 °F 83% 30.20 in 7.0 mi Calm Calm - N/A   Clear
8:53 AM 60.1 °F 51.1 °F 72% 30.21 in 10.0 mi SW 5.8 mph - N/A   Clear
9:53 AM 64.9 °F 51.1 °F 61% 30.20 in 10.0 mi Variable 6.9 mph - N/A   Clear
10:53 AM 68.0 °F 51.1 °F 55% 30.19 in 10.0 mi WSW 8.1 mph - N/A   Clear
11:53 AM 71.1 °F 50.0 °F 47% 30.17 in 10.0 mi West 6.9 mph - N/A   Clear
12:53 PM 73.0 °F 48.0 °F 41% 30.14 in 10.0 mi SW 8.1 mph - N/A   Clear
1:53 PM 73.0 °F 48.0 °F 41% 30.12 in 10.0 mi South 8.1 mph 17.3 mph N/A   Mostly Cloudy
2:53 PM 73.0 °F 46.9 °F 39% 30.09 in 10.0 mi South 10.4 mph - N/A   Mostly Cloudy
3:53 PM 73.0 °F 46.9 °F 39% 30.07 in 10.0 mi South 13.8 mph 20.7 mph N/A   Mostly Cloudy
4:53 PM 72.0 °F 48.9 °F 44% 30.07 in 10.0 mi SSW 13.8 mph 23.0 mph N/A   Overcast
5:53 PM 71.1 °F 46.9 °F 42% 30.06 in 10.0 mi South 11.5 mph 18.4 mph N/A   Scattered Clouds
6:53 PM 69.1 °F 48.0 °F 47% 30.05 in 10.0 mi South 15.0 mph 21.9 mph N/A   Clear
7:53 PM 66.9 °F 48.9 °F 52% 30.05 in 10.0 mi South 6.9 mph - N/A   Mostly Cloudy
8:53 PM 64.9 °F 51.1 °F 61% 30.06 in 10.0 mi SSW 9.2 mph - N/A   Partly Cloudy
9:53 PM 63.0 °F 53.1 °F 70% 30.07 in 10.0 mi SSW 9.2 mph - N/A   Clear
10:53 PM 62.1 °F 54.0 °F 75% 30.08 in 10.0 mi SSW 8.1 mph - N/A   Partly Cloudy
11:53 PM 61.0 °F 54.0 °F 78% 30.06 in 10.0 mi South 5.8 mph - N/A   Overcast